QPF
0.04 0.04 0.04 0.03 0.02 0.01 0.00 0.00 0.01 0.01 0.01 0.01 0.01 0.01 0.00 0.00 0.01 0.01 0.00 0.01 0.01 0.02 0.03 0.03 0.03 0.03 0.04 0.04 0.04 0.05 0.05 0.05 0.06 0.08 0.05 0.04 0.04 0.05 0.07 0.07 0.04 0.03 0.04
0.02 0.03 0.05 0.03 0.02 0.01 0.00 0.00 0.00 0.00 0.00 0.01 0.01 0.00 0.00 0.00 0.00 0.00 0.01 0.01 0.01 0.02 0.03 0.03 0.02 0.02 0.03 0.03 0.03 0.04 0.05 0.05 0.06 0.08 0.06 0.05 0.05 0.05 0.06 0.05 0.03 0.04 0.06
0.01 0.01 0.04 0.04 0.02 0.01 0.01 0.00 0.00 0.00 0.00 0.00 0.00 0.00 0.00 0.00 0.00 0.01 0.01 0.01 0.01 0.02 0.02 0.02 0.02 0.02 0.02 0.03 0.03 0.04 0.05 0.05 0.06 0.06 0.05 0.03 0.04 0.05 0.05 0.05 0.05 0.05 0.07
0.00 0.00 0.01 0.04 0.02 0.01 0.01 0.01 0.00 0.00 0.00 0.00 0.00 0.00 0.00 0.00 0.01 0.01 0.01 0.02 0.02 0.02 0.01 0.02 0.02 0.03 0.03 0.04 0.05 0.05 0.05 0.04 0.03 0.02 0.01 0.02 0.03 0.05 0.05 0.04 0.04 0.04 0.06
0.01 0.01 0.02 0.03 0.02 0.01 0.01 0.01 0.01 0.00 0.00 0.00 0.00 0.00 0.00 0.01 0.01 0.02 0.02 0.02 0.02 0.02 0.02 0.02 0.03 0.03 0.04 0.05 0.06 0.06 0.07 0.04 0.01 0.00 0.00 0.01 0.02 0.05 0.05 0.05 0.04 0.05 0.04
0.01 0.01 0.01 0.02 0.02 0.02 0.02 0.02 0.01 0.01 0.01 0.00 0.00 0.01 0.01 0.01 0.02 0.02 0.02 0.03 0.03 0.03 0.02 0.02 0.02 0.02 0.03 0.05 0.07 0.08 0.08 0.05 0.01 0.00 0.00 0.01 0.01 0.05 0.05 0.05 0.04 0.04 0.04
0.01 0.01 0.01 0.02 0.02 0.03 0.03 0.03 0.01 0.01 0.01 0.01 0.00 0.01 0.02 0.02 0.02 0.03 0.03 0.03 0.02 0.03 0.02 0.02 0.02 0.03 0.06 0.09 0.10 0.12 0.10 0.05 0.01 0.00 0.00 0.01 0.02 0.04 0.05 0.05 0.04 0.03 0.04
0.01 0.02 0.03 0.03 0.03 0.04 0.03 0.03 0.03 0.02 0.01 0.01 0.01 0.01 0.01 0.02 0.02 0.02 0.03 0.03 0.02 0.03 0.03 0.03 0.03 0.04 0.05 0.06 0.08 0.08 0.06 0.03 0.01 0.01 0.00 0.01 0.03 0.03 0.04 0.03 0.03 0.04 0.03
0.02 0.02 0.03 0.04 0.03 0.02 0.03 0.02 0.03 0.02 0.02 0.02 0.02 0.01 0.01 0.01 0.02 0.02 0.03 0.04 0.02 0.03 0.03 0.03 0.03 0.04 0.04 0.05 0.05 0.05 0.04 0.02 0.01 0.01 0.00 0.01 0.02 0.03 0.03 0.02 0.03 0.04 0.03
0.02 0.03 0.04 0.04 0.04 0.02 0.03 0.04 0.02 0.02 0.03 0.03 0.02 0.01 0.02 0.02 0.02 0.03 0.04 0.03 0.02 0.02 0.02 0.03 0.03 0.04 0.04 0.05 0.05 0.05 0.05 0.03 0.01 0.02 0.00 0.01 0.02 0.03 0.02 0.02 0.03 0.03 0.02
0.02 0.02 0.03 0.05 0.05 0.04 0.03 0.03 0.03 0.02 0.02 0.03 0.03 0.03 0.02 0.01 0.01 0.01 0.03 0.02 0.02 0.02 0.02 0.03 0.04 0.04 0.05 0.05 0.07 0.06 0.05 0.03 0.01 0.00 0.00 0.01 0.02 0.03 0.03 0.02 0.02 0.02 0.02
0.02 0.03 0.03 0.03 0.03 0.04 0.03 0.03 0.03 0.01 0.01 0.01 0.01 0.01 0.01 0.00 0.01 0.01 0.03 0.03 0.02 0.02 0.03 0.04 0.05 0.04 0.03 0.02 0.04 0.04 0.02 0.02 0.01 0.00 0.00 0.01 0.02 0.02 0.03 0.03 0.02 0.02 0.02
0.01 0.02 0.03 0.03 0.02 0.03 0.04 0.04 0.04 0.02 0.01 0.01 0.01 0.01 0.00 0.00 0.00 0.01 0.02 0.04 0.02 0.02 0.02 0.02 0.02 0.02 0.02 0.03 0.03 0.03 0.03 0.01 0.00 0.01 0.00 0.01 0.02 0.02 0.02 0.03 0.03 0.02 0.02
0.04 0.03 0.06 0.05 0.03 0.03 0.04 0.05 0.05 0.04 0.02 0.01 0.01 0.00 0.01 0.00 0.00 0.01 0.01 0.01 0.01 0.00 0.01 0.01 0.01 0.02 0.02 0.03 0.03 0.03 0.02 0.01 0.01 0.01 0.00 0.01 0.01 0.02 0.02 0.02 0.03 0.02 0.01
0.07 0.06 0.08 0.09 0.06 0.04 0.03 0.04 0.05 0.04 0.03 0.01 0.01 0.01 0.01 0.00 0.00 0.00 0.00 0.00 0.00 0.00 0.01 0.02 0.02 0.01 0.02 0.03 0.02 0.03 0.01 0.02 0.01 0.01 0.01 0.02 0.02 0.02 0.02 0.02 0.02 0.02 0.02
0.09 0.08 0.08 0.08 0.09 0.06 0.04 0.03 0.04 0.04 0.04 0.02 0.01 0.01 0.01 0.01 0.01 0.01 0.01 0.01 0.00 0.01 0.01 0.02 0.02 0.01 0.01 0.02 0.03 0.03 0.02 0.02 0.01 0.01 0.01 0.02 0.02 0.02 0.02 0.02 0.03 0.02 0.02
0.10 0.11 0.11 0.12 0.11 0.09 0.08 0.04 0.04 0.05 0.05 0.05 0.02 0.02 0.02 0.02 0.02 0.02 0.02 0.01 0.01 0.02 0.02 0.02 0.03 0.03 0.03 0.03 0.04 0.04 0.03 0.02 0.02 0.02 0.01 0.01 0.02 0.03 0.04 0.04 0.04 0.04 0.03
0.12 0.13 0.17 0.21 0.18 0.12 0.10 0.07 0.07 0.08 0.09 0.08 0.05 0.04 0.03 0.02 0.02 0.02 0.03 0.02 0.02 0.02 0.02 0.03 0.03 0.04 0.04 0.05 0.05 0.05 0.04 0.03 0.03 0.02 0.01 0.01 0.02 0.02 0.04 0.06 0.05 0.04 0.04
0.16 0.19 0.29 0.37 0.31 0.18 0.14 0.12 0.15 0.17 0.17 0.12 0.07 0.05 0.04 0.03 0.02 0.02 0.03 0.03 0.02 0.02 0.04 0.03 0.02 0.03 0.04 0.05 0.04 0.04 0.04 0.04 0.03 0.02 0.02 0.02 0.01 0.01 0.02 0.04 0.06 0.06 0.06
0.20 0.26 0.37 0.42 0.30 0.20 0.19 0.17 0.17 0.19 0.16 0.11 0.07 0.06 0.05 0.05 0.03 0.03 0.04 0.03 0.03 0.02 0.02 0.02 0.02 0.02 0.04 0.04 0.04 0.05 0.05 0.04 0.04 0.03 0.03 0.03 0.03 0.02 0.01 0.01 0.02 0.03 0.06
0.23 0.27 0.27 0.28 0.21 0.16 0.17 0.17 0.15 0.11 0.09 0.07 0.05 0.05 0.06 0.06 0.06 0.06 0.05 0.04 0.03 0.01 0.01 0.01 0.01 0.01 0.02 0.03 0.04 0.04 0.03 0.03 0.04 0.04 0.03 0.03 0.03 0.03 0.02 0.02 0.01 0.02 0.02
0.18 0.18 0.17 0.18 0.17 0.15 0.17 0.17 0.15 0.10 0.07 0.07 0.06 0.05 0.06 0.06 0.06 0.06 0.05 0.04 0.04 0.03 0.02 0.02 0.02 0.02 0.02 0.02 0.03 0.03 0.02 0.02 0.02 0.02 0.02 0.03 0.02 0.02 0.02 0.02 0.02 0.02 0.01
0.15 0.17 0.15 0.15 0.15 0.15 0.19 0.18 0.15 0.12 0.09 0.06 0.05 0.06 0.06 0.06 0.05 0.05 0.05 0.04 0.04 0.04 0.03 0.02 0.02 0.02 0.02 0.03 0.02 0.02 0.01 0.01 0.01 0.01 0.01 0.02 0.01 0.01 0.01 0.01 0.02 0.03 0.02
0.13 0.15 0.13 0.12 0.14 0.14 0.15 0.13 0.10 0.07 0.05 0.05 0.07 0.09 0.08 0.06 0.05 0.04 0.04 0.03 0.02 0.03 0.03 0.03 0.03 0.04 0.03 0.03 0.03 0.02 0.02 0.01 0.00 0.00 0.01 0.01 0.01 0.01 0.01 0.01 0.02 0.03 0.02
0.12 0.12 0.10 0.10 0.10 0.10 0.11 0.12 0.10 0.08 0.06 0.06 0.10 0.12 0.08 0.06 0.05 0.04 0.03 0.03 0.03 0.02 0.02 0.04 0.03 0.05 0.05 0.04 0.03 0.03 0.02 0.01 0.00 0.00 0.00 0.00 0.01 0.01 0.01 0.01 0.02 0.02 0.03
0.10 0.09 0.09 0.09 0.07 0.09 0.09 0.09 0.09 0.09 0.08 0.08 0.09 0.09 0.07 0.06 0.06 0.04 0.03 0.04 0.04 0.03 0.02 0.02 0.03 0.04 0.04 0.03 0.03 0.03 0.02 0.01 0.00 0.00 0.00 0.00 0.00 0.01 0.01 0.01 0.01 0.02 0.02
MSLP
1013.35 1013.11 1013.04 1013.15 1013.39 1013.68 1013.95 1014.15 1014.23 1014.23 1014.16 1014.11 1014.11 1014.21 1014.42 1014.71 1015.04 1015.36 1015.61 1015.77 1015.84 1015.86 1015.86 1015.88 1015.96 1016.10 1016.31 1016.53 1016.75 1016.93 1017.05 1017.12 1017.15 1017.19 1017.27 1017.40 1017.60 1017.85 1018.15 1018.44 1018.72 1018.97 1019.18
1013.18 1013.05 1013.08 1013.29 1013.60 1013.95 1014.26 1014.48 1014.57 1014.56 1014.49 1014.43 1014.43 1014.53 1014.75 1015.04 1015.38 1015.69 1015.94 1016.10 1016.17 1016.18 1016.18 1016.20 1016.27 1016.41 1016.61 1016.82 1017.03 1017.21 1017.34 1017.43 1017.49 1017.57 1017.67 1017.83 1018.04 1018.30 1018.58 1018.86 1019.13 1019.37 1019.58
1012.93 1012.89 1013.02 1013.31 1013.70 1014.11 1014.48 1014.74 1014.87 1014.88 1014.84 1014.79 1014.80 1014.90 1015.10 1015.37 1015.68 1015.96 1016.19 1016.32 1016.38 1016.40 1016.40 1016.42 1016.51 1016.65 1016.85 1017.07 1017.29 1017.48 1017.64 1017.76 1017.87 1017.98 1018.13 1018.31 1018.53 1018.79 1019.05 1019.31 1019.56 1019.78 1019.99
1012.67 1012.71 1012.92 1013.28 1013.73 1014.21 1014.63 1014.95 1015.13 1015.19 1015.18 1015.16 1015.18 1015.27 1015.44 1015.68 1015.94 1016.17 1016.35 1016.46 1016.51 1016.52 1016.53 1016.58 1016.68 1016.84 1017.06 1017.29 1017.53 1017.75 1017.94 1018.12 1018.28 1018.44 1018.62 1018.83 1019.06 1019.30 1019.54 1019.77 1019.98 1020.19 1020.39
1012.50 1012.61 1012.87 1013.28 1013.78 1014.30 1014.77 1015.13 1015.36 1015.47 1015.50 1015.51 1015.54 1015.63 1015.77 1015.96 1016.16 1016.33 1016.47 1016.55 1016.59 1016.61 1016.65 1016.72 1016.86 1017.05 1017.28 1017.54 1017.80 1018.05 1018.28 1018.49 1018.70 1018.91 1019.13 1019.36 1019.58 1019.80 1020.00 1020.19 1020.38 1020.56 1020.75
1012.52 1012.66 1012.95 1013.38 1013.89 1014.43 1014.91 1015.30 1015.56 1015.71 1015.78 1015.82 1015.87 1015.95 1016.06 1016.21 1016.36 1016.49 1016.59 1016.65 1016.69 1016.74 1016.81 1016.92 1017.09 1017.31 1017.56 1017.84 1018.11 1018.38 1018.64 1018.89 1019.13 1019.38 1019.62 1019.85 1020.07 1020.26 1020.42 1020.57 1020.71 1020.87 1021.05
1012.74 1012.90 1013.19 1013.61 1014.11 1014.62 1015.09 1015.46 1015.73 1015.90 1016.00 1016.07 1016.13 1016.22 1016.33 1016.45 1016.58 1016.68 1016.76 1016.82 1016.88 1016.96 1017.06 1017.22 1017.42 1017.66 1017.93 1018.20 1018.47 1018.74 1019.01 1019.27 1019.54 1019.80 1020.06 1020.29 1020.49 1020.66 1020.79 1020.90 1021.00 1021.13 1021.30
1013.14 1013.30 1013.59 1013.97 1014.42 1014.88 1015.29 1015.63 1015.87 1016.04 1016.15 1016.25 1016.34 1016.45 1016.58 1016.71 1016.83 1016.93 1017.02 1017.09 1017.18 1017.29 1017.43 1017.62 1017.84 1018.09 1018.35 1018.61 1018.86 1019.11 1019.36 1019.62 1019.89 1020.16 1020.42 1020.65 1020.84 1020.99 1021.09 1021.17 1021.25 1021.36 1021.52
1013.64 1013.81 1014.08 1014.43 1014.81 1015.19 1015.52 1015.79 1015.99 1016.13 1016.25 1016.37 1016.51 1016.66 1016.82 1016.98 1017.13 1017.25 1017.36 1017.46 1017.57 1017.70 1017.87 1018.08 1018.31 1018.55 1018.79 1019.02 1019.24 1019.46 1019.68 1019.92 1020.17 1020.44 1020.70 1020.94 1021.13 1021.27 1021.36 1021.43 1021.49 1021.59 1021.74
1014.14 1014.34 1014.60 1014.91 1015.22 1015.51 1015.76 1015.95 1016.09 1016.21 1016.34 1016.49 1016.66 1016.87 1017.08 1017.28 1017.47 1017.62 1017.75 1017.87 1018.00 1018.15 1018.33 1018.54 1018.77 1018.99 1019.21 1019.40 1019.58 1019.75 1019.94 1020.15 1020.39 1020.65 1020.91 1021.15 1021.36 1021.51 1021.61 1021.68 1021.75 1021.84 1021.99
1014.56 1014.80 1015.07 1015.35 1015.61 1015.83 1015.99 1016.11 1016.21 1016.30 1016.43 1016.61 1016.83 1017.09 1017.36 1017.61 1017.82 1018.00 1018.15 1018.28 1018.42 1018.57 1018.75 1018.95 1019.16 1019.37 1019.55 1019.71 1019.86 1020.00 1020.15 1020.34 1020.56 1020.81 1021.08 1021.33 1021.55 1021.72 1021.85 1021.94 1022.03 1022.13 1022.28
1014.84 1015.14 1015.44 1015.72 1015.95 1016.11 1016.22 1016.28 1016.34 1016.43 1016.57 1016.78 1017.04 1017.34 1017.65 1017.94 1018.19 1018.38 1018.53 1018.66 1018.78 1018.92 1019.08 1019.27 1019.46 1019.65 1019.82 1019.96 1020.08 1020.20 1020.33 1020.50 1020.71 1020.95 1021.21 1021.48 1021.72 1021.93 1022.09 1022.22 1022.33 1022.45 1022.60
1014.97 1015.34 1015.69 1015.98 1016.19 1016.34 1016.41 1016.46 1016.50 1016.59 1016.75 1016.98 1017.28 1017.62 1017.96 1018.27 1018.52 1018.72 1018.86 1018.97 1019.07 1019.19 1019.33 1019.50 1019.68 1019.86 1020.02 1020.16 1020.28 1020.39 1020.52 1020.67 1020.86 1021.09 1021.35 1021.62 1021.89 1022.12 1022.32 1022.49 1022.64 1022.78 1022.93
1014.95 1015.39 1015.79 1016.10 1016.33 1016.48 1016.56 1016.61 1016.67 1016.78 1016.96 1017.23 1017.55 1017.90 1018.25 1018.57 1018.82 1019.00 1019.13 1019.21 1019.29 1019.39 1019.51 1019.67 1019.84 1020.03 1020.20 1020.35 1020.49 1020.61 1020.73 1020.88 1021.05 1021.26 1021.50 1021.77 1022.03 1022.29 1022.52 1022.72 1022.90 1023.07 1023.23
1014.83 1015.32 1015.75 1016.10 1016.35 1016.53 1016.64 1016.73 1016.82 1016.97 1017.18 1017.46 1017.80 1018.15 1018.50 1018.80 1019.04 1019.21 1019.32 1019.40 1019.46 1019.55 1019.67 1019.82 1020.01 1020.21 1020.40 1020.58 1020.74 1020.87 1021.00 1021.13 1021.28 1021.47 1021.68 1021.91 1022.16 1022.41 1022.66 1022.89 1023.10 1023.29 1023.46
1014.65 1015.15 1015.60 1015.96 1016.25 1016.46 1016.62 1016.77 1016.92 1017.11 1017.35 1017.65 1017.98 1018.33 1018.66 1018.95 1019.18 1019.34 1019.45 1019.54 1019.61 1019.70 1019.83 1020.00 1020.20 1020.42 1020.64 1020.85 1021.03 1021.19 1021.32 1021.44 1021.56 1021.70 1021.85 1022.04 1022.25 1022.48 1022.72 1022.96 1023.19 1023.40 1023.59
1014.44 1014.92 1015.34 1015.71 1016.02 1016.28 1016.51 1016.72 1016.94 1017.18 1017.45 1017.75 1018.08 1018.40 1018.71 1018.98 1019.21 1019.38 1019.52 1019.63 1019.74 1019.86 1020.01 1020.20 1020.42 1020.67 1020.91 1021.15 1021.35 1021.52 1021.66 1021.76 1021.85 1021.93 1022.03 1022.16 1022.31 1022.50 1022.71 1022.94 1023.17 1023.40 1023.60
1014.22 1014.64 1015.03 1015.38 1015.71 1016.02 1016.31 1016.59 1016.88 1017.17 1017.46 1017.76 1018.07 1018.36 1018.64 1018.90 1019.13 1019.33 1019.51 1019.67 1019.83 1020.00 1020.20 1020.41 1020.66 1020.91 1021.18 1021.43 1021.65 1021.83 1021.96 1022.06 1022.12 1022.15 1022.19 1022.25 1022.33 1022.46 1022.63 1022.84 1023.07 1023.30 1023.52
1014.01 1014.36 1014.69 1015.02 1015.35 1015.70 1016.06 1016.42 1016.77 1017.10 1017.41 1017.70 1017.97 1018.22 1018.47 1018.71 1018.95 1019.18 1019.42 1019.65 1019.88 1020.11 1020.34 1020.59 1020.84 1021.11 1021.38 1021.63 1021.86 1022.05 1022.20 1022.29 1022.33 1022.34 1022.32 1022.32 1022.34 1022.40 1022.52 1022.69 1022.90 1023.13 1023.36
1013.83 1014.09 1014.36 1014.66 1015.01 1015.40 1015.82 1016.25 1016.66 1017.03 1017.34 1017.60 1017.82 1018.03 1018.23 1018.45 1018.69 1018.96 1019.26 1019.55 1019.85 1020.14 1020.42 1020.68 1020.94 1021.20 1021.46 1021.72 1021.95 1022.16 1022.32 1022.43 1022.48 1022.47 1022.42 1022.37 1022.34 1022.34 1022.40 1022.53 1022.70 1022.92 1023.14
1013.68 1013.87 1014.09 1014.37 1014.73 1015.16 1015.64 1016.13 1016.59 1016.98 1017.29 1017.51 1017.68 1017.82 1017.97 1018.15 1018.40 1018.69 1019.03 1019.39 1019.75 1020.08 1020.39 1020.66 1020.92 1021.16 1021.41 1021.66 1021.90 1022.13 1022.33 1022.46 1022.54 1022.55 1022.50 1022.42 1022.35 1022.30 1022.30 1022.37 1022.50 1022.68 1022.89
1013.57 1013.71 1013.90 1014.17 1014.55 1015.02 1015.56 1016.10 1016.59 1017.00 1017.29 1017.47 1017.57 1017.64 1017.73 1017.87 1018.09 1018.40 1018.77 1019.16 1019.56 1019.93 1020.25 1020.52 1020.76 1020.99 1021.22 1021.46 1021.72 1021.98 1022.22 1022.41 1022.53 1022.58 1022.55 1022.47 1022.37 1022.28 1022.23 1022.24 1022.32 1022.45 1022.62
1013.51 1013.63 1013.80 1014.08 1014.47 1014.98 1015.56 1016.14 1016.66 1017.07 1017.34 1017.47 1017.51 1017.51 1017.53 1017.62 1017.81 1018.11 1018.48 1018.90 1019.32 1019.70 1020.02 1020.29 1020.51 1020.71 1020.93 1021.17 1021.44 1021.74 1022.02 1022.27 1022.46 1022.55 1022.57 1022.50 1022.40 1022.28 1022.18 1022.13 1022.14 1022.20 1022.32
1013.49 1013.61 1013.79 1014.07 1014.48 1015.01 1015.61 1016.22 1016.75 1017.16 1017.40 1017.49 1017.48 1017.41 1017.37 1017.41 1017.56 1017.83 1018.19 1018.61 1019.03 1019.41 1019.73 1019.99 1020.19 1020.38 1020.59 1020.83 1021.12 1021.44 1021.77 1022.08 1022.33 1022.48 1022.54 1022.50 1022.40 1022.26 1022.12 1022.01 1021.95 1021.96 1022.01
1013.49 1013.64 1013.82 1014.10 1014.51 1015.04 1015.64 1016.25 1016.78 1017.17 1017.40 1017.46 1017.41 1017.30 1017.21 1017.20 1017.32 1017.56 1017.90 1018.31 1018.72 1019.10 1019.41 1019.66 1019.86 1020.03 1020.23 1020.48 1020.78 1021.12 1021.49 1021.84 1022.14 1022.34 1022.43 1022.43 1022.33 1022.19 1022.02 1021.87 1021.76 1021.69 1021.68
1013.51 1013.67 1013.84 1014.11 1014.50 1015.00 1015.58 1016.16 1016.68 1017.06 1017.27 1017.31 1017.24 1017.11 1016.99 1016.96 1017.05 1017.26 1017.59 1017.98 1018.38 1018.75 1019.06 1019.31 1019.51 1019.69 1019.89 1020.13 1020.44 1020.79 1021.18 1021.55 1021.87 1022.11 1022.23 1022.25 1022.18 1022.04 1021.86 1021.69 1021.54 1021.43 1021.36
Thickness
5777 5778 5777 5775 5774 5774 5774 5773 5773 5772 5772 5771 5769 5768 5767 5766 5764 5763 5762 5761 5760 5759 5758 5756 5755 5754 5753 5752 5751 5750 5748 5747 5746 5745 5744 5743 5742 5740 5739 5738 5737 5736 5734
5783 5779 5777 5775 5773 5772 5771 5771 5771 5770 5769 5768 5767 5766 5765 5764 5763 5762 5760 5759 5758 5757 5756 5754 5753 5752 5751 5749 5748 5747 5746 5745 5744 5743 5742 5740 5739 5738 5737 5736 5735 5734 5732
5783 5780 5776 5774 5772 5771 5770 5769 5768 5767 5766 5766 5765 5764 5763 5762 5761 5760 5758 5757 5756 5755 5753 5752 5751 5749 5748 5747 5746 5745 5743 5742 5741 5740 5739 5737 5737 5736 5735 5734 5733 5731 5730
5783 5779 5775 5773 5771 5769 5768 5767 5766 5765 5764 5763 5762 5761 5760 5759 5758 5757 5756 5755 5754 5752 5751 5749 5748 5747 5745 5744 5743 5742 5741 5739 5738 5737 5736 5735 5734 5733 5732 5731 5730 5729 5728
5781 5777 5774 5771 5769 5767 5766 5764 5763 5762 5761 5760 5760 5759 5758 5757 5756 5755 5754 5753 5751 5750 5749 5747 5746 5744 5743 5741 5740 5739 5738 5737 5736 5734 5734 5733 5732 5731 5730 5729 5728 5727 5726
5779 5775 5772 5769 5767 5765 5763 5762 5761 5760 5759 5758 5757 5757 5756 5754 5754 5753 5752 5750 5749 5748 5746 5744 5743 5742 5740 5739 5738 5737 5736 5735 5733 5732 5731 5730 5729 5729 5727 5726 5725 5724 5723
5777 5773 5770 5768 5765 5763 5761 5760 5759 5758 5757 5756 5755 5754 5753 5752 5751 5750 5749 5748 5747 5745 5744 5742 5741 5740 5738 5737 5736 5735 5734 5732 5731 5729 5728 5727 5727 5726 5725 5724 5723 5722 5721
5776 5772 5768 5766 5763 5761 5760 5758 5757 5756 5755 5754 5753 5752 5751 5750 5749 5748 5747 5746 5744 5743 5741 5740 5739 5738 5737 5736 5734 5733 5732 5730 5728 5727 5726 5725 5725 5724 5723 5722 5721 5720 5719
5774 5770 5766 5764 5761 5759 5757 5756 5755 5754 5753 5752 5751 5750 5749 5748 5747 5746 5745 5743 5742 5741 5739 5738 5737 5736 5735 5734 5733 5731 5730 5728 5726 5725 5724 5723 5722 5722 5720 5719 5719 5718 5717
5771 5767 5765 5762 5759 5757 5755 5754 5753 5751 5751 5750 5749 5748 5747 5746 5745 5744 5743 5741 5740 5739 5738 5737 5735 5734 5733 5733 5731 5730 5728 5727 5725 5723 5722 5721 5721 5720 5719 5718 5717 5716 5715
5767 5765 5763 5760 5757 5755 5753 5752 5751 5749 5748 5747 5747 5746 5745 5744 5743 5742 5741 5740 5739 5738 5737 5735 5734 5733 5732 5731 5730 5728 5727 5725 5723 5722 5721 5720 5719 5719 5718 5717 5716 5715 5714
5764 5762 5761 5758 5755 5753 5751 5750 5748 5747 5745 5745 5744 5743 5743 5742 5741 5740 5739 5739 5738 5737 5735 5734 5733 5732 5731 5730 5728 5727 5725 5724 5722 5721 5720 5719 5719 5718 5717 5716 5715 5714 5713
5766 5762 5758 5756 5753 5751 5749 5747 5745 5744 5742 5742 5741 5741 5740 5740 5739 5738 5737 5737 5736 5735 5734 5733 5731 5730 5729 5728 5727 5725 5724 5723 5722 5720 5719 5718 5718 5717 5716 5715 5714 5712 5712
5764 5761 5757 5755 5752 5749 5747 5745 5743 5741 5740 5739 5739 5738 5738 5737 5737 5736 5735 5735 5734 5733 5732 5731 5730 5729 5728 5727 5726 5724 5723 5722 5721 5720 5719 5718 5717 5716 5715 5714 5712 5711 5710
5762 5759 5756 5753 5751 5748 5746 5743 5740 5738 5737 5737 5736 5736 5736 5736 5735 5735 5734 5734 5733 5732 5731 5730 5729 5728 5727 5727 5726 5724 5723 5722 5720 5719 5718 5717 5716 5715 5714 5713 5712 5711 5710
5763 5759 5756 5752 5749 5746 5744 5741 5739 5736 5735 5735 5735 5735 5735 5734 5734 5734 5733 5732 5732 5731 5730 5729 5729 5728 5727 5726 5725 5724 5723 5722 5720 5719 5718 5717 5716 5715 5714 5713 5712 5711 5709
5764 5759 5753 5750 5747 5744 5742 5740 5737 5735 5734 5733 5733 5734 5734 5733 5733 5733 5732 5731 5731 5730 5730 5729 5728 5727 5726 5725 5725 5724 5723 5721 5720 5719 5718 5717 5716 5715 5714 5713 5712 5711 5710
5763 5757 5753 5750 5746 5743 5741 5739 5736 5734 5733 5732 5732 5733 5733 5733 5732 5732 5731 5730 5730 5730 5729 5728 5727 5725 5725 5724 5723 5723 5723 5721 5720 5719 5718 5717 5716 5715 5714 5713 5712 5711 5710
5763 5758 5751 5748 5746 5742 5740 5737 5735 5734 5733 5732 5732 5732 5732 5732 5732 5732 5731 5730 5729 5729 5728 5728 5726 5725 5724 5723 5723 5723 5722 5722 5721 5720 5719 5718 5717 5716 5715 5714 5712 5711 5710
5763 5757 5752 5747 5745 5742 5738 5735 5733 5732 5732 5731 5732 5732 5732 5732 5732 5732 5730 5730 5729 5729 5728 5727 5726 5725 5724 5723 5723 5722 5721 5721 5721 5720 5720 5719 5717 5716 5715 5714 5713 5712 5711
5761 5755 5751 5747 5745 5742 5737 5734 5731 5730 5731 5731 5732 5733 5732 5732 5732 5731 5730 5730 5729 5729 5728 5727 5725 5723 5722 5722 5720 5718 5719 5721 5721 5721 5720 5719 5719 5718 5716 5715 5714 5713 5712
5760 5755 5751 5748 5745 5743 5740 5737 5735 5733 5732 5733 5733 5733 5733 5733 5732 5731 5730 5729 5729 5729 5727 5726 5725 5723 5722 5722 5719 5714 5712 5714 5719 5722 5721 5720 5720 5719 5718 5717 5715 5714 5713
5759 5755 5753 5748 5746 5743 5741 5738 5736 5733 5732 5731 5732 5732 5733 5733 5733 5732 5730 5729 5729 5729 5727 5727 5726 5724 5721 5720 5721 5717 5711 5708 5713 5718 5720 5721 5721 5720 5719 5718 5716 5715 5714
5759 5756 5753 5749 5746 5744 5742 5740 5736 5733 5731 5732 5733 5733 5733 5733 5733 5732 5731 5730 5729 5729 5728 5728 5727 5726 5723 5720 5719 5720 5719 5717 5712 5711 5716 5718 5719 5719 5719 5718 5717 5716 5714
5759 5756 5752 5749 5746 5744 5743 5741 5738 5735 5734 5733 5732 5732 5731 5732 5732 5732 5731 5730 5729 5729 5728 5728 5727 5726 5724 5722 5720 5719 5717 5715 5715 5711 5709 5713 5715 5718 5718 5718 5717 5716 5714
5759 5755 5753 5749 5746 5745 5743 5741 5739 5736 5734 5732 5731 5730 5730 5730 5730 5731 5730 5729 5729 5729 5728 5728 5727 5726 5725 5723 5722 5720 5719 5716 5714 5712 5709 5709 5710 5713 5716 5716 5715 5715 5714